{"data":{"norad_id":54695,"epoch":"2026-05-25T04:29:35.979072Z","epoch_age_seconds":62875,"freshness":"FRESH","line1":"1 54695U 22167P   26145.18722198  .00010572  00000+0  31707-3 0  9998","line2":"2 54695  97.6865 313.7344 0006431 187.2636 172.8514 15.34652697191865","mean_motion":15.34652697,"eccentricity":0.0006431,"inclination_deg":97.6865,"raan_deg":313.7344,"arg_perigee_deg":187.2636,"mean_anomaly_deg":172.8514,"bstar":0.00031707,"rev_number":19186,"period_min":93.832305043022,"perigee_km":457.55341311865,"apogee_km":466.35113594356,"semimajor_km":6840.0892745311,"source":"CELESTRAK","updated_at":"2026-05-25T13:37:58.710485Z"}}